Weather in Tucson

United States     32°13′16″N   110°55′33″W
temp.,
°C
wind,
m/s
gust,
m/s
humid.,
%
clouds,
%
prec.,
mm/h
press.,
hPa
HPBL,
m
18 may, tue
tue1823:00+22w46250 0.0 1011571
02:00+21wnw23280 0.0 1011353
05:00+20sse11290 0.0 1011279
08:00+22sw12260 0.0 1011593
11:00+26wnw35215 0.0 10101828
14:00+30wnw671476 0.0 10073990
17:00+30nw971246 0.0 10063889
20:00+28nnw57194 0.0 10071449
19 may, wed
wed1923:00+25w47270 0.0 1009595
02:00+24se11290 0.0 1008325
05:00+22se33310 0.0 1009194
08:00+24se22270 0.0 1010371
11:00+28wnw13190 0.0 10091055
14:00+32w35130 0.0 10063048
17:00+33wsw77100 0.0 10043711
20:00+30wsw78130 0.0 10051373
20 may, thu
thu2023:00+26s3616100 0.0 1008467
02:00+24se452224 0.0 1008327
05:00+23se3423100 0.0 1008263
08:00+25se3620100 0.0 1009561
11:00+30ssw6713100 0.0 10082224
14:00+33sw781099 0.0 10053293
17:00+32sw9912100 0.0 10032946
20:00+29wsw6818100 0.0 10051151
21 may, fri
fri2123:00+27s5716100 0.0 1006948
02:00+25ssw3417100 0.0 1007505
05:00+24sse2321100 0.0 1008487
08:00+24se462183 0.0 1009853
11:00+29ssw8101575 0.0 10082772
14:00+31sw1011140 0.0 10073068
17:00+29sw10111612 0.0 10072509
20:00+26sw77163 0.0 10101513
22 may, sat
sat2223:00+23wsw231910 0.0 1012522
02:00+21nnw1119100 0.0 1012373
05:00+20nw2219100 0.0 1012401
08:00+21s1216100 0.0 1013551
11:00+26sse38130 0.0 10121930
14:00+31sw91272 0.0 10083091
17:00+30sw101290 0.0 10082833
20:00+24w7850 0.0 1011901